Weather in Sibu

Malaysia     2°15′47″N   111°51′32″E
temp.,
°C
wind,
m/s
gust,
m/s
humid.,
%
clouds,
%
prec.,
mm/h
press.,
hPa
HPBL,
m
21 june, mon
mon2123:00+23se1398100 2.0 101286
02:00+23ne1199100 2.9 101127
05:00+23sw1198100 0.0 101024
08:00+23ese1197100 0.0 101138
11:00+24sse0190100 0.0 1011126
14:00+31sw2453100 0.0 10091189
17:00+31ssw1359100 0.0 1008857
20:00+25w1183100 0.0 101011
22 june, tue
tue2223:00+24se1189100 0.0 101111
02:00+23se009397 0.0 101012
05:00+22sse009497 0.0 101012
08:00+24sse118549 0.1 1012124
11:00+32s1253100 0.0 10111100
14:00+35ssw124210 0.0 10082055
17:00+33w234856 0.0 1007767
20:00+25ne1187100 0.3 101029
23 june, wed
wed2323:00+24wsw1194100 0.3 101222
02:00+24ene1196100 0.6 101020
05:00+23e1197100 0.0 101025
08:00+25ese1292100 0.0 1012162
11:00+31e1161100 0.3 1012903
14:00+35nne114497 0.3 10082234
17:00+27nw1585100 1.0 1008205
20:00+24nw1196100 1.8 101022
24 june, thu
thu2423:00+23nne0098100 1.6 101113
02:00+23wsw0099100 1.8 101014
05:00+23ese009994 0.1 101017
08:00+24se1296100 0.7 1012130
11:00+28ssw0185100 3.1 1011450
14:00+31wnw2261100 4.3 10091281
17:00+27w0189100 2.1 100858
20:00+24w0195100 3.4 101012
25 june, fri
fri2523:00+23s0097100 0.7 101112
02:00+23s009894 0.7 101013
05:00+23se1198100 0.1 100918
08:00+24se1293100 0.1 1011147
11:00+29s127678 1.6 1011553
14:00+32wsw1154100 2.8 10081146
17:00+31nnw1259100 0.1 1007599
20:00+24sse009792 1.7 100911